Content
SEND FEEDBACK

Daily
Averages
Monthly
Summary
United States of America

YIGO, GUAM


Home > North America > United States > Guam
Elevation: 162 meters     Latitude: 13 32N     Longitude: 144 53E

WEATHER
 
SELECT A DAY
Number of Records: 209,133;   Date Range: 1/1/95 - 8/28/14
 
SHARE

PRINT THIS DATA

[ ← Previous Day ]
WEATHER ALMANAC - 17 JANUARY, 2014
[ Next Day → ]
[ °F ]   °C
Weather ElementAverageHighLow
Temperature26.2 °C28.9 °C (11:54 am)24 °C (4:44 pm)
Dewpoint23.2 °C25 °C (12:25 pm)21.7 °C (1:54 pm)
Humidity83.5 %94 % (4:44 pm)69 % (1:54 pm)
Barometer1010.2 hPa1012.5 hPa (10:00 am)1008.5 hPa (1:54 pm)
Wind Speed17.1 km/h31.5 km/h (12:25 pm)
Wind Gust48.1 km/h (2:49 pm)
Weather ElementAverage
Visibility14.2 km
Wind DirectionENE (79.7 °)

Weather ElementTotal
Precipitation4.83 mm
Cooling Degree Days8.1 (Base 18.3)
Growing Degree Days16.4 (Base 10)
Averaged from 32 records on 17 January, 2014
WEATHER CONDITIONS BREAKOUT
WIND DIRECTION BREAKOUT
WEATHER BY HOUR - 17 JANUARY, 2014
[ °F ]   °C
Local TimeTemperatureDewpointHumidityBarometerVisibilityWind DirectionWind SpeedGust SpeedPrecipitationEventsConditions
1:54 AM24.4 °C22.8 °C91 %1010.2 hPa16.1 kmCalmScattered Clouds
2:54 AM24.4 °C22.8 °C91 %1009.5 hPa16.1 kmCalmPartly Cloudy
3:54 AM25.6 °C22.8 °C84 %1009.5 hPa16.1 kmENE (70°)11.1 km/hClear
4:54 AM25.6 °C22.2 °C81 %1009.5 hPa16.1 kmENE (60°)16.7 km/hPartly Cloudy
5:54 AM25.6 °C22.2 °C81 %1010.2 hPa16.1 kmENE (60°)14.8 km/hScattered Clouds
6:54 AM25.6 °C22.2 °C81 %1010.5 hPa16.1 kmEast (80°)13 km/hPartly Cloudy
7:54 AM26.7 °C22.8 °C79 %1011.2 hPa16.1 kmEast (80°)11.1 km/hClear
8:54 AM27.8 °C22.2 °C71 %1011.5 hPa16.1 kmEast (80°)20.4 km/hPartly Cloudy
9:54 AM27.8 °C23.3 °C76 %1011.5 hPa16.1 kmEast (100°)13 km/hScattered Clouds
10:00 AM27 °C24 °C84 %1012.5 hPa11.3 kmNE (50°)25.9 km/h40.7 km/h0 mmRainLight Rain
10:13 AM26 °C24 °C89 %1012.5 hPa11.3 kmENE (60°)25.9 km/h0.76 mmRainLight Rain
10:28 AM27 °C24 °C84 %1012.2 hPa16.1 kmENE (60°)24.1 km/h0.76 mmMostly Cloudy
10:54 AM28.3 °C24.4 °C79 %1011.2 hPa16.1 kmENE (70°)24.1 km/h0.76 mmScattered Clouds
11:54 AM28.9 °C23.3 °C72 %1010.2 hPa16.1 kmEast (90°)22.2 km/hPartly Cloudy
12:08 PM26 °C24 °C89 %1010.8 hPa6.4 kmEast (80°)25.9 km/h37 km/h0 mmRainRain
12:25 PM27 °C25 °C89 %1010.8 hPa16.1 kmEast (80°)31.5 km/h37 km/h0 mmOvercast
12:38 PM27 °C23 °C79 %1010.5 hPa16.1 kmEast (90°)24.1 km/h0 mmOvercast
12:54 PM27.2 °C22.8 °C77 %1009.5 hPa12.9 kmEast (100°)27.8 km/h38.9 km/h0 mmRainLight Rain
1:54 PM27.8 °C21.7 °C69 %1008.5 hPa16.1 kmESE (110°)18.5 km/h0 mmMostly Cloudy
2:49 PM27 °C23 °C79 %1009.1 hPa4 kmESE (110°)31.5 km/h48.1 km/h0 mmRainRain
2:54 PM25 °C23.3 °C90 %1008.5 hPa4.8 kmEast (100°)27.8 km/h48.1 km/h1.27 mmRainHeavy Rain
3:22 PM26 °C23 °C83 %1009.1 hPa16.1 kmESE (110°)16.7 km/h33.3 km/h0.25 mmOvercast
3:54 PM26.7 °C23.9 °C85 %1008.5 hPa16.1 kmEast (80°)13 km/h0.51 mmMostly Cloudy
4:44 PM24 °C23 °C94 %1009.8 hPa6.4 kmEast (100°)20.4 km/h35.2 km/h0.25 mmRainLight Rain
4:54 PM24.4 °C23.3 °C94 %1009.1 hPa11.3 kmEast (100°)14.8 km/h0.25 mmRainLight Rain
5:54 PM25 °C23.3 °C90 %1009.1 hPa16.1 kmSE (130°)11.1 km/h0 mmOvercast
6:54 PM25.6 °C22.8 °C84 %1009.5 hPa16.1 kmENE (70°)7.4 km/hMostly Cloudy
7:54 PM25.6 °C23.9 °C90 %1010.2 hPa16.1 kmEast (90°)5.6 km/hMostly Cloudy
8:54 PM25.6 °C22.8 °C84 %1010.5 hPa16.1 kmEast (100°)5.6 km/h0 mmMostly Cloudy
9:54 PM26.1 °C23.9 °C88 %1010.5 hPa16.1 kmENE (70°)11.1 km/hMostly Cloudy
10:54 PM26.1 °C23.3 °C84 %1010.5 hPa16.1 kmEast (90°)9.3 km/hMostly Cloudy
11:54 PM26.1 °C22.8 °C82 %1010.5 hPa16.1 kmEast (80°)22.2 km/h0 mmRainLight Rain
Hourly data recorded from PGUM, located 0 kilometers away from Yigo, Guam







STORIES FROM OUR PARTNERS